Torna al catalogo

SL-12 R/B

AUX MOTOR

AttivoHEO
NORAD 23402·ROCKET BODY·🇷🇺 Russia

Lanciato Nov 20, 1994 da Baikonur Cosmodrome

Loading…

Prossimi Passaggi (prossime 24 ore)

TLE

AggiornatoSource: Space-Track

Epoca: Sep 13, 2026, 10:50 UTC

1 23402U 94076G   26256.45159498  .00000002  00000-0  16864-3 0  9993
2 23402  65.4101 269.0296 5592402 114.7586 312.1457  4.27498056493513

Traccia SL-12 R/B in tempo reale con AllMySat

Download on the App Store